Location: *
(51.1248°S, 108.4023°W)
Time: 07:07:13
(UTC+00:00)

Cosmos 494 Rocket - Visible Passes

Search period start: 27 October 2021 00:00
Search period end: 06 November 2021 00:00
Orbit: 742 x 771 km, 74.1° (Epoch: 26 October)

Date Brightness Start Highest point End Pass type
(mag) Time Alt. Az. Time Alt. Az. Time Alt. Az.
27 Oct 7.4 04:22:34 10° WSW 04:24:54 13° SW 04:27:14 10° S visible
27 Oct 6.7 09:34:36 10° S 09:38:38 22° SE 09:42:40 10° E visible
28 Oct 7.1 03:40:13 10° W 03:43:46 18° SW 03:47:21 10° S visible
28 Oct 7.1 08:54:32 10° S 08:57:34 15° SE 09:00:36 10° ESE visible
28 Oct 4.7 10:35:17 10° SSW 10:40:31 61° ESE 10:45:44 10° NE visible
29 Oct 6.5 02:58:25 10° WNW 03:02:46 26° SW 03:07:09 10° S visible
29 Oct 7.4 08:15:05 10° SSE 08:16:22 11° SSE 08:17:39 10° SE visible
29 Oct 5.6 09:54:50 10° SSW 09:59:47 39° SE 10:04:42 10° NE visible
30 Oct 7.5 04:03:53 10° SW 04:05:17 11° SSW 04:06:41 10° SSW visible
30 Oct 6.3 09:14:30 10° S 09:18:54 26° SE 09:23:18 10° ENE visible
30 Oct 4.0 10:55:57 10° SSW 11:01:11 66° WNW 11:06:24 10° N visible
31 Oct 7.1 03:21:02 10° WSW 03:24:05 15° SW 03:27:10 10° S visible
31 Oct 6.8 08:34:20 10° S 08:37:54 18° SE 08:41:28 10° E visible
31 Oct 4.2 10:15:20 10° SSW 10:20:38 77° ESE 10:25:55 10° NNE visible
01 Nov 7.1 07:54:27 10° S 07:56:46 13° SE 07:59:04 10° ESE visible
01 Nov 5.1 09:34:50 10° SSW 09:39:57 48° ESE 09:45:03 10° NE visible
02 Nov 5.9 08:54:27 10° S 08:59:08 31° SE 09:03:49 10° ENE visible
02 Nov 4.2 10:36:06 10° SSW 10:41:13 51° WNW 10:46:18 10° N visible
03 Nov 7.2 03:01:59 10° WSW 03:04:26 13° SW 03:06:54 10° S visible
03 Nov 6.5 08:14:11 10° S 08:18:12 21° SE 08:22:12 10° E visible
03 Nov 4.0 09:55:24 10° SSW 10:00:43 85° WNW 10:06:01 10° NNE visible
04 Nov 6.8 07:34:07 10° S 07:37:07 15° SE 07:40:06 10° ESE visible
04 Nov 4.6 09:14:51 10° SSW 09:20:06 60° ESE 09:25:19 10° NE visible
05 Nov 7.1 06:54:44 10° SSE 06:55:54 11° SSE 06:57:05 10° SE visible
05 Nov 5.4 08:34:24 10° SSW 08:39:21 38° SE 08:44:16 10° ENE visible
05 Nov 4.5 10:16:17 10° SW 10:21:12 40° WNW 10:26:07 10° N visible
